Weather History for Vacaville, CA

Change the Weather History Date:

Sunday, June 16, 2013

  Actual Average Record
Temperature  
Mean Temperature 74 °F -  
Max Temperature 93 °F 90 °F 113 °F (1961)
Min Temperature 57 °F 55 °F 43 °F (1978)
Cooling Degree Days 9    
Growing Degree Days 24 (Base 50)    
Moisture  
Dew Point 46 °F    
Average Humidity 41    
Maximum Humidity 69    
Minimum Humidity 20    
Precipitation  
Precipitation 0.00 in - - ()
Sea Level Pressure  
Sea Level Pressure 29.98 in    
Wind  
Wind Speed 6 mph (SW)    
Max Wind Speed 16 mph    
Max Gust Speed 22 mph    
Visibility 10 miles    
Events      
Averages and records for this station are not official NWS values.
T = Trace of Precipitation, MM = Missing Value Source: NWS Daily Summary

Daily Weather History Graph

Daily Weather History Graph

Search for Another Location

Airport:

Trip Planner

Search our weather history database for the weather conditions in past years. The results will help you decide how hot, cold, wet, or windy it might be!

Date:

Astronomy

Jun. 16, 2013 Rise Set
Actual Time 5:43 AM PDT 8:33 PM PDT
Civil Twilight 5:11 AM PDT 9:05 PM PDT
Nautical Twilight 4:32 AM PDT 9:45 PM PDT
Astronomical Twilight 3:46 AM PDT 10:30 PM PDT
Moon 1:19 PM PDT (6/16) 12:46 AM PDT (6/16)
Length of Visible Light 15h 53m
Length of Day
14h 50m
Waxing Crescent, 51% of the Moon is Illuminated
Jun 16
Waxing Crescent
Jun 23
Full
Jun 29
Last Quarter
Jul 8
New
Jul 15
First Quarter

Hourly Weather History & Observations

Time (PDT) Temp. Dew Point Humidity Pressure Visibility Wind Dir Wind Speed Gust Speed Precip Events Conditions
12:53 AM 64.0 °F 45.0 °F 50% 29.90 in 10.0 mi SSW 3.5 mph - N/A   Clear
1:53 AM 60.1 °F 45.0 °F 57% 29.91 in 10.0 mi Calm Calm - N/A   Clear
2:53 AM 61.0 °F 44.1 °F 54% 29.92 in 10.0 mi SW 5.8 mph - N/A   Clear
3:53 AM 59.0 °F 45.0 °F 60% 29.93 in 10.0 mi WSW 10.4 mph - N/A   Clear
4:53 AM 59.0 °F 44.1 °F 58% 29.94 in 10.0 mi SW 8.1 mph - N/A   Clear
5:53 AM 57.9 °F 45.0 °F 62% 29.96 in 10.0 mi SW 5.8 mph - N/A   Clear
6:53 AM 59.0 °F 48.9 °F 69% 29.98 in 10.0 mi Calm Calm - N/A   Clear
7:53 AM 61.0 °F 50.0 °F 67% 30.00 in 10.0 mi Calm Calm - N/A   Clear
8:53 AM 66.0 °F 51.1 °F 59% 30.02 in 10.0 mi East 4.6 mph - N/A   Clear
9:53 AM 73.0 °F 48.9 °F 42% 30.02 in 10.0 mi SE 3.5 mph - N/A   Clear
10:53 AM 77.0 °F 48.0 °F 36% 30.02 in 10.0 mi Variable 3.5 mph - N/A   Clear
11:53 AM 81.0 °F 48.0 °F 31% 30.02 in 10.0 mi Variable 4.6 mph - N/A   Clear
12:53 PM 86.0 °F 46.9 °F 26% 30.01 in 10.0 mi Variable 5.8 mph - N/A   Clear
1:53 PM 91.0 °F 48.9 °F 23% 29.99 in 10.0 mi Variable 6.9 mph - N/A   Clear
2:53 PM 91.9 °F 45.0 °F 20% 29.98 in 10.0 mi WSW 13.8 mph 21.9 mph N/A   Clear
3:53 PM 91.9 °F 45.0 °F 20% 29.98 in 10.0 mi SW 15.0 mph - N/A   Clear
4:53 PM 91.0 °F 46.9 °F 22% 29.98 in 10.0 mi WSW 16.1 mph - N/A   Clear
5:53 PM 89.1 °F 46.9 °F 23% 29.97 in 10.0 mi WSW 16.1 mph - N/A   Clear
6:53 PM 86.0 °F 46.0 °F 25% 29.97 in 10.0 mi WSW 11.5 mph - N/A   Clear
7:53 PM 82.9 °F 46.0 °F 27% 29.98 in 10.0 mi West 10.4 mph - N/A   Clear
8:53 PM 80.1 °F 43.0 °F 27% 29.98 in 10.0 mi Variable 4.6 mph - N/A   Clear
9:53 PM 73.9 °F 44.1 °F 34% 29.99 in 10.0 mi SSE 6.9 mph - N/A   Clear
10:53 PM 72.0 °F 41.0 °F 33% 30.00 in 10.0 mi SSE 4.6 mph - N/A   Clear
11:53 PM 64.9 °F 44.1 °F 47% 30.00 in 10.0 mi Calm Calm - N/A   Clear